Regional Weather Roundup
Issued by NWS

Home | Current Version | Previous Version | Graphics & Text | Print | Product List | Glossary On
Versions: 1 2 3 4 5 6 7 8 9 10 11 12 13 14 15 16 17 18 19 20 21 22 23 24 25 26 27 28 29 30 31 32 33 34 35 36 37 38 39 40 41 42 43 44 45 46 47 48 49 50
000
ASUS45 KSLC 211010
RWRUT

UTAH REGIONAL WEATHER ROUNDUP
NATIONAL WEATHER SERVICE SALT LAKE CITY UT
300 AM MST FRI NOV 21 2014

UTZ001>011-023>025-211100-

NORTHERN UTAH

CITY           SKY/WX    TMP DP  RH WIND       PRES   REMARKS
BRIGHAM CITY   CLEAR     26  21  81 CALM      30.03R
HILL AFB       CLEAR     33  21  62 E15       30.01R WCI  22
LOGAN          CLEAR     24  20  84 CALM      30.04R
OGDEN          CLEAR     29  22  75 S5        30.02R WCI  24
PROVO AIRPORT  PTCLDY    25  21  86 CALM      30.03R
SALT LAKE CITY PTCLDY    26  23  88 W5        30.02R WCI  20
VERNAL         PTCLDY    22  11  62 W5        30.05F WCI  16
WENDOVER       PTCLDY    21  10  63 E3        30.02S
HEBER CITY     PTCLDY    19  14  79 E3        30.03S
WEST JORDAN    CLEAR     30  27  86 NW5       30.03R WCI  25

$$

UTZ012>022-026-027-211100-

SOUTHERN/CENTRAL UTAH

CITY           SKY/WX    TMP DP  RH WIND       PRES   REMARKS
BLANDING       PTCLDY    28  17  65 NE3       30.11F
BRYCE CANYON   MOCLDY    23  16  74 W7        30.05S WCI  15
CEDAR CITY     PTCLDY    31  23  72 SE7       29.98F WCI  24
DELTA          MOCLDY    25  17  72 W5        30.01S WCI  19
MILFORD        MOCLDY    29  21  72 SW5       29.99S WCI  24
MOAB/CYNLANDS  CLEAR     22   8  55 CALM      30.05S
PRICE          PTCLDY    24  11  57 CALM      30.05R
ST GEORGE      MOSUNNY   39  12  33 SW3       29.99S
KANAB          MOCLDY    34  16  47 NW13      30.04F WCI  25

$$

REGIONAL REPORTS     COLORADO/ARIZONA

CITY           SKY/WX    TMP DP  RH WIND       PRES   REMARKS
CRAIG, CO      MOCLDY    25  19  78 E3        30.04F
GRAND JUNCTION CLEAR     23  16  74 E3        30.06S
RIFLE          CLOUDY    30  23  75 CALM      30.08S
MONTROSE       CLEAR     23  18  81 S6        30.09F WCI  16
CORTEZ         CLEAR     20  17  88 CALM      30.06F
PAGE, AZ       NOT AVBL
GRAND CANYON   CLOUDY    27  15  61 VRB3      30.03F
KINGMAN        CLOUDY    49  16  26 SW6       29.94S
FLAGSTAFF      CLOUDY    28  15  58 CALM      30.03F

$$

REGIONAL REPORTS    NEVADA/IDAHO/WYOMING

CITY           SKY/WX    TMP DP  RH WIND       PRES   REMARKS
LAS VEGAS, NV  CLOUDY    53  21  28 S8        29.88R
ELY            MOCLDY    23  13  65 S5        30.00S WCI  17
ELKO           PTCLDY    28  25  88 NE6       29.99R WCI  22
POCATELLO, ID  MOCLDY    21  20  96 N7        30.04S FOG     WCI  12
BURLEY         PTCLDY    24  20  84 CALM      30.02S
EVANSTON, WY   CLEAR     25  13  60 S7        30.02S WCI  17
ROCK SPRINGS   PTCLDY    24  15  68 SW10      30.01S WCI  14

$$



USA.gov is the U.S. government's official web portal to all federal, state and local government web resources and services.